Regional Weather Roundup
Issued by NWS Midland/Odessa, TX

Skip options and go directly to product.
Home | Oldest Version | Previous Version | Current Version | All | Text Only | Save Text | Print | Product List | Glossary On

Skip product version selection by date and time.   
275
ASUS44 KMAF 312110
RWRMAF
MIDLAND AREA WEATHER ROUNDUP
NATIONAL WEATHER SERVICE MIDLAND TX
400 PM CDT FRI JUL 31 2015

...IN SOUTHWEST TEXAS AND SOUTHEAST NEW MEXICO...

CITY           SKY/WX    TMP DP  RH WIND       PRES   REMARKS
ALPINE         MOSUNNY   88  51  27 E8G17     30.27F
ANDREWS        FAIR      95  50  21 CALM      30.13F
ARTESIA        SUNNY     93  55  27 SE12      30.15F
BIG SPRING     MOSUNNY   95  54  25 N10       30.11F
CARLSBAD       SUNNY     98  54  22 MISG      30.13F
DRYDEN           N/A    101  58  24 S10G21    30.04F HX 100
FORT STOCKTON  MOSUNNY   95  54  25 E14G28    30.11F
GUAD PASS      MOSUNNY   84  54  35 E22       30.30F
HOBBS          MOSUNNY   93  48  21 SE7       30.17F
MARFA          MOSUNNY   88  52  29 E8        30.25F
MIDLAND AIRPK  SUNNY     99  50  19 SE8G17    30.11F
MIDLAND INTL   PTSUNNY   96  53  23 E8G18     30.10F
ODESSA         MOSUNNY   98  51  20 E9G16     30.12F
PECOS          SUNNY     99  49  18 E9        30.07F
PRESIDIO       FAIR      97  48  19 E8G23     30.06F
SEMINOLE       PTSUNNY   94  49  21 SE6       30.15F
SNYDER         SUNNY     96  58  28 NE3       30.10F
WINK           PTSUNNY   98  51  20 SE13      30.08F
$$
...OTHER STATIONS IN TEXAS...

CITY           SKY/WX    TMP DP  RH WIND       PRES   REMARKS
ABILENE        MOSUNNY   98  58  26 E5        30.05F
AMARILLO       MOSUNNY   84  64  50 N8        30.22F
AUSTIN         PTSUNNY   97  68  38 NE12      29.95F HX 102
BROWNSVILLE    CLOUDY    87  73  62 E9        29.98F
CORPUS CHRISTI PTSUNNY   98  69  38 NE7       29.94S THUNDER HX 104
DALLAS FTW     PTSUNNY   98  67  36 E12G20    30.01F HX 102
DEL RIO        MOSUNNY  101  63  28 SE7       29.96F HX 103
EL PASO        MOSUNNY   92  53  26 CALM      30.15F
HOUSTON INT    MOSUNNY   99  71  40 NE12G21   29.94F HX 107
LUBBOCK        MOSUNNY   92  65  40 NE10      30.16F
SAN ANGELO     SUNNY    101  59  24 NE14G20   30.05F HX 101
SAN ANTONIO    PTSUNNY   81  68  64 NW18G31   30.00R THUNDER
WACO           MOSUNNY  100  69  36 E12       29.98F HX 106
WICHITA FALLS  NOT AVBL
$$
...OTHER LOCATIONS IN NEW MEXICO...

CITY           SKY/WX    TMP DP  RH WIND       PRES   REMARKS
ALAMAGORDO     MOSUNNY   91  50  24 S12G20    30.17F
ALBUQUERQUE    MOSUNNY   85  55  35 SE9       30.27F
CANNON AFB     MOSUNNY   84  64  51 S3        30.23F
CLOVIS         MOSUNNY   86  63  45 SE8       30.25F
HOLLOMAN AFB   SUNNY     93  53  25 N12       30.14F
ROSWELL        MOSUNNY   95  52  23 E12G17    30.15F
RUIDOSO          N/A    N/A N/A N/A MISG        N/A
SANTA FE       PTSUNNY   78  56  46 NW8       30.36F
TRUTH OR CONSE SUNNY     86  56  35 SW6       30.23F
TUCUMCARI      MOSUNNY   82  65  56 SE7       30.21F
$$

USA.gov is the U.S. government's official web portal to all federal, state and local government web resources and services.